Weather History for Geneva, Switzerland

Change the Weather History Date:

Tuesday, November 27, 2012

  Actual Average Record
Temperature  
Mean Temperature 40 °F -  
Max Temperature 40 °F 41 °F 55 °F (2006)
Min Temperature 39 °F 30 °F 15 °F (2005)
Degree Days  
Heating Degree Days 26    
Moisture  
Dew Point 38 °F    
Average Humidity 93    
Maximum Humidity 100    
Minimum Humidity 84    
Precipitation  
Precipitation 0.39 in 0.11 in - ()
Sea Level Pressure  
Sea Level Pressure 29.73 in    
Wind  
Wind Speed 3 mph ()    
Max Wind Speed 6 mph    
Max Gust Speed -    
Visibility 5.8 miles    
Events Rain    
Averages and records for this station are not official NWS values.
T = Trace of Precipitation, MM = Missing Value Source: Averaged Metar Reports

Daily Weather History Graph

Daily Weather History Graph

Search for Another Location

Airport:

Trip Planner

Search our weather history database for the weather conditions in past years. The results will help you decide how hot, cold, wet, or windy it might be!

Date:

Astronomy

Nov. 27, 2012 Rise Set
Actual Time 7:53 AM CET 4:52 PM CET
Civil Twilight 7:19 AM CET 5:26 PM CET
Nautical Twilight 6:42 AM CET 6:04 PM CET
Astronomical Twilight 6:06 AM CET 6:39 PM CET
Moon 4:14 PM CET (11/27) 6:41 AM CET (11/27)
Length of Visible Light 10h 07m
Length of Day
8h 59m
Waxing Gibbous, 99% of the Moon is Illuminated
Nov 27
Waxing Gibbous
Nov 28
Full
Dec 6
Last Quarter
Dec 13
New
Dec 20
First Quarter

Hourly Weather History & Observations

Time (CET) Temp. Windchill Dew Point Humidity Pressure Visibility Wind Dir Wind Speed Gust Speed Precip Events Conditions
12:00 AM 44 °F - 42 °F 91% 29.82 in - NW 1.2 mph - -  
12:20 AM 44.6 °F - 42.8 °F 93% 29.77 in 4.3 mi Calm Calm - N/A Rain Rain
12:50 AM 42.8 °F - 42.8 °F 100% 29.77 in 5.0 mi Variable 2.3 mph - N/A Rain Rain
1:00 AM 44 °F - 42 °F 89% 29.81 in 4 mi West 3.5 mph - - Rain Rain
1:20 AM 42.8 °F 41.1 °F 42.8 °F 100% 29.77 in 5.6 mi SW 3.5 mph - N/A Rain Light Rain
1:50 AM 42.8 °F - 42.8 °F 100% 29.77 in 5.6 mi Variable 2.3 mph - N/A Rain Light Rain
2:00 AM 43 °F - 42 °F 95% 29.80 in - West 3.5 mph - -  
2:50 AM 42.8 °F 41.1 °F 42.8 °F 100% 29.77 in 5.0 mi WSW 3.5 mph - N/A Rain Rain
3:00 AM 43 °F - 41 °F 90% 29.80 in - West 3.5 mph - -  
3:20 AM 42.8 °F 40.1 °F 41.0 °F 93% 29.74 in 5.6 mi WSW 4.6 mph - N/A Rain Rain
3:50 AM 42.8 °F 39.3 °F 41.0 °F 93% 29.74 in 4.3 mi SW 5.8 mph - N/A Rain Rain
4:20 AM 41.0 °F 37.1 °F 41.0 °F 100% 29.74 in 6.2 mi SW 5.8 mph - N/A Rain Light Rain
4:50 AM 41.0 °F 38.0 °F 39.2 °F 93% 29.74 in 6.2 mi SW 4.6 mph - N/A Rain Light Rain
5:00 AM 42 °F - 39 °F 86% 29.80 in - WSW 3.5 mph - -  
5:20 AM 41.0 °F 39.0 °F 39.2 °F 93% 29.74 in 6.2 mi WSW 3.5 mph - N/A Rain Light Rain
5:50 AM 41.0 °F 37.1 °F 39.2 °F 93% 29.77 in 6.2 mi SW 5.8 mph - N/A Rain Light Rain
6:00 AM 41 °F - 39 °F 88% 29.80 in - WSW 4.6 mph - -  
6:20 AM 41.0 °F 39.0 °F 39.2 °F 93% 29.74 in 6.2 mi Variable 3.5 mph - N/A Rain Rain
6:50 AM 39.2 °F 35.9 °F 37.4 °F 93% 29.74 in 6.2 mi WSW 4.6 mph - N/A Rain Rain
7:00 AM 40 °F - 37 °F 85% 29.80 in 6 mi West 3.5 mph - - Rain Rain
7:20 AM 39.2 °F - 37.4 °F 93% 29.74 in 6.2 mi Variable 2.3 mph - N/A Rain Rain
7:50 AM 39.2 °F 37.0 °F 37.4 °F 93% 29.74 in 5.6 mi West 3.5 mph - N/A Rain Rain
8:00 AM 39 °F - 37 °F 90% 29.80 in - West 4.6 mph - -  
8:20 AM 39.2 °F - 37.4 °F 93% 29.74 in 5.0 mi Variable 2.3 mph - N/A Rain Rain
8:50 AM 39.2 °F 37.0 °F 37.4 °F 93% 29.74 in 5.6 mi Variable 3.5 mph - N/A Rain Rain
9:00 AM 39 °F - 36 °F 84% 29.80 in - WNW 3.5 mph - -  
9:20 AM 39.2 °F - 37.4 °F 93% 29.74 in 5.0 mi West 2.3 mph - N/A Rain Rain
9:50 AM 39.2 °F - 37.4 °F 93% 29.74 in 5.6 mi West 2.3 mph - N/A Rain Rain
10:20 AM 39.2 °F - 37.4 °F 93% 29.74 in 6.2 mi Variable 2.3 mph - N/A Rain Light Rain
10:50 AM 39.2 °F - 37.4 °F 93% 29.74 in 6.2 mi Variable 2.3 mph - N/A Rain Rain
11:00 AM 39 °F - 36 °F 87% 29.80 in - NW 2.3 mph - -  
11:20 AM 39.2 °F - 37.4 °F 93% 29.74 in 5.6 mi Variable 2.3 mph - N/A Rain Rain
11:50 AM 39.2 °F - 37.4 °F 93% 29.74 in 6.2 mi Variable 1.2 mph - N/A Rain Light Rain
12:00 PM 40 °F - 37 °F 86% 29.78 in - NNE 2.3 mph - -  
12:20 PM 39.2 °F - 37.4 °F 93% 29.71 in 6.2 mi Variable 1.2 mph - N/A Rain Light Rain
12:50 PM 39.2 °F - 37.4 °F 93% 29.71 in 6.2 mi Variable 2.3 mph - N/A Rain Light Rain
1:00 PM 40 °F - 38 °F 88% 29.75 in 7 mi NNE 4.6 mph - - Rain Light Rain
1:20 PM 39.2 °F 35.9 °F 37.4 °F 93% 29.71 in 6.2 mi ENE 4.6 mph - N/A Rain Light Rain
1:50 PM 41.0 °F - 37.4 °F 87% 29.68 in 6.2 mi Variable 2.3 mph - N/A Rain Light Rain
2:00 PM 40 °F - 37 °F 87% 29.74 in - NE 4.6 mph - -  
2:20 PM 39.2 °F - 37.4 °F 93% 29.68 in 5.6 mi Variable 2.3 mph - N/A Rain Rain
2:50 PM 39.2 °F 37.0 °F 37.4 °F 93% 29.68 in 6.2 mi ENE 3.5 mph - N/A Rain Light Rain
3:00 PM 40 °F - 38 °F 88% 29.73 in - NE 3.5 mph - -  
3:20 PM 39.2 °F 37.0 °F 37.4 °F 93% 29.68 in 5.6 mi ENE 3.5 mph - N/A Rain Rain
3:50 PM 39.2 °F - 39.2 °F 100% 29.68 in 6.2 mi Variable 2.3 mph - N/A Rain Light Rain
4:20 PM 39.2 °F - 39.2 °F 100% 29.68 in 6.2 mi Calm Calm - N/A Rain Light Rain
4:40 PM 40 °F - 38 °F 90% 29.73 in - North 2.3 mph - -  
4:50 PM 39.2 °F - 39.2 °F 100% 29.68 in 6.2 mi Variable 1.2 mph - N/A Rain Light Rain
5:00 PM 40 °F - 38 °F 88% 29.73 in - North 2.3 mph - -  
5:20 PM 39.2 °F - 39.2 °F 100% 29.68 in 5.6 mi Variable 1.2 mph - N/A Rain Light Rain
5:50 PM 39.2 °F - 37.4 °F 93% 29.68 in 5.6 mi Variable 2.3 mph - N/A Rain Light Rain
6:00 PM 40 °F - 38 °F 89% 29.73 in - North 2.3 mph - -  
6:20 PM 39.2 °F - 37.4 °F 93% 29.68 in 5.6 mi Variable 1.2 mph - N/A Rain Light Rain
6:50 PM 39.2 °F 37.0 °F 37.4 °F 93% 29.68 in 6.2 mi North 3.5 mph - N/A Rain Light Rain
7:00 PM 40 °F - 37 °F 86% 29.72 in 6 mi North 3.5 mph - - Rain Light Rain
7:20 PM 39.2 °F - 37.4 °F 93% 29.68 in 6.2 mi Variable 2.3 mph - N/A Rain Light Rain
7:50 PM 39.2 °F - 37.4 °F 93% 29.68 in 6.2 mi Variable 2.3 mph - N/A Rain Light Rain
8:20 PM 39.2 °F 37.0 °F 37.4 °F 93% 29.65 in 6.2 mi North 3.5 mph - N/A Rain Light Rain
8:50 PM 39.2 °F - 37.4 °F 93% 29.65 in 6.2 mi NNW 2.3 mph - N/A Rain Light Rain
9:00 PM 39 °F - 37 °F 91% 29.71 in - NNW 3.5 mph - -  
9:20 PM 39.2 °F - 37.4 °F 93% 29.65 in 6.2 mi NNW 1.2 mph - N/A Rain Light Rain
9:50 PM 39.2 °F - 37.4 °F 93% 29.65 in 6.2 mi Calm Calm - N/A Rain Light Rain
10:20 PM 39.2 °F - 37.4 °F 93% 29.65 in 5.0 mi Calm Calm - N/A Rain Light Rain
10:50 PM 39.2 °F - 37.4 °F 93% 29.65 in 5.0 mi Calm Calm - N/A Rain Light Rain
11:00 PM 40 °F - 37 °F 87% 29.70 in - NW 1.2 mph - -  
11:20 PM 39.2 °F - 37.4 °F 93% 29.65 in 6.2 mi Calm Calm - N/A Rain Light Rain
11:50 PM 39.2 °F - 39.2 °F 100% 29.65 in 6.2 mi Calm Calm - N/A Rain Light Rain